Probability
1 1 1 2 2 1 0 0 0 0 0 0 0 0 0 0 0 0 0 0 1 2 1 0 0 0 0 0 0 0 0 0 0 0 0 0 0 0 0 0 0 0 0 0 0 0 0 0 0
1 0 1 1 1 0 0 0 0 0 0 0 0 0 0 0 0 0 0 0 1 1 1 0 0 0 0 0 0 0 0 0 0 0 0 0 0 0 0 0 0 0 0 0 0 0 0 0 0
0 0 0 0 0 0 0 0 0 0 0 0 0 0 0 0 0 0 0 0 0 0 0 0 0 0 0 0 0 0 0 0 0 0 0 0 0 0 0 0 0 0 0 0 0 0 0 0 0
0 0 0 0 0 0 0 0 0 0 0 0 0 0 0 0 0 0 0 0 0 0 0 0 0 0 0 0 0 0 0 0 0 0 0 0 0 0 0 0 0 0 0 0 0 0 0 0 0
0 0 0 0 0 0 0 0 0 0 0 0 0 0 0 0 0 0 0 0 0 0 0 0 0 0 0 0 0 0 0 0 0 0 0 0 0 0 0 0 0 0 0 0 0 0 0 0 0
0 0 0 0 0 0 0 0 0 0 0 0 0 0 0 0 0 0 0 0 0 0 0 0 0 0 0 0 0 0 0 0 0 0 0 0 0 0 0 0 0 0 0 0 0 0 0 0 0
0 0 0 0 0 0 0 0 0 0 0 0 0 0 0 0 0 0 0 0 1 1 1 0 0 0 0 0 0 0 0 0 0 0 0 0 0 0 0 0 0 0 0 0 0 0 0 0 0
0 0 0 0 0 0 0 0 0 0 0 1 1 1 1 1 0 0 0 0 1 1 1 0 0 0 0 0 0 0 0 0 0 0 0 0 0 0 0 0 0 0 0 0 0 0 0 0 0
0 0 0 0 0 0 0 0 0 0 1 2 3 3 2 1 0 0 0 0 0 0 0 0 0 0 0 0 0 0 0 0 0 0 0 0 0 0 0 0 0 0 0 0 0 0 0 0 0
0 0 0 0 0 0 0 0 0 0 1 2 3 3 2 1 0 0 0 0 0 0 0 0 0 0 0 0 0 0 0 0 0 0 0 0 0 0 0 0 0 0 0 0 0 0 0 0 0
0 0 0 0 0 0 0 0 0 0 1 2 2 2 1 0 0 0 0 0 0 0 0 0 0 0 0 0 0 0 0 0 0 0 0 0 0 0 0 0 0 0 0 0 0 0 0 0 0
0 0 0 0 0 0 0 0 0 0 0 1 1 1 1 0 0 0 0 0 0 0 0 0 0 0 0 0 0 0 0 0 0 0 0 0 0 0 0 0 0 0 0 0 0 0 0 0 0
0 0 0 0 0 0 0 0 0 0 0 0 1 2 1 0 0 0 0 0 0 0 0 0 0 0 0 0 0 0 0 0 0 0 0 0 0 0 0 0 0 0 0 0 0 0 0 0 0
0 0 0 0 0 0 0 0 0 0 0 0 1 1 1 1 1 0 0 0 0 0 0 0 0 0 0 0 0 0 0 0 0 0 0 0 0 0 0 0 0 0 0 0 0 0 0 0 0
0 0 0 0 0 0 0 0 0 0 0 0 0 0 1 1 1 0 0 0 0 0 0 0 0 0 0 0 0 0 0 0 0 0 0 0 0 0 0 0 0 0 0 0 0 0 0 0 0
0 0 0 0 0 0 0 0 0 0 0 0 0 0 0 1 1 0 0 0 0 0 0 0 0 0 0 0 0 0 0 0 0 0 0 0 0 0 0 0 0 0 0 0 0 0 0 0 0
0 0 0 0 0 0 0 0 0 0 0 0 0 0 0 1 1 1 0 0 0 0 0 0 0 0 0 0 0 0 0 0 0 0 0 0 0 0 0 0 0 0 0 0 0 0 0 0 0
0 0 0 0 0 0 0 0 0 0 0 0 0 0 0 1 2 2 1 0 0 0 0 0 0 0 0 0 0 0 0 0 0 0 0 0 0 0 0 0 0 0 0 0 0 0 0 0 0
0 0 0 0 0 0 0 0 0 0 0 0 0 0 0 1 2 2 1 1 2 1 0 0 0 0 0 0 0 0 0 0 0 0 0 0 0 0 0 0 0 0 0 0 0 0 0 0 0
0 0 0 0 0 0 0 0 0 0 0 0 0 0 0 0 1 1 1 2 2 2 1 1 0 0 0 0 0 0 0 0 0 0 0 0 0 0 0 0 0 0 0 0 0 0 0 0 0
0 0 0 0 0 0 0 0 0 0 0 0 0 0 0 0 0 1 2 2 2 1 2 2 1 0 0 0 0 0 0 0 0 0 0 0 0 0 0 0 0 0 0 0 0 0 0 0 0
0 0 0 0 0 0 0 0 0 0 0 0 0 0 0 0 0 1 2 2 1 1 1 2 2 1 1 0 0 0 0 0 0 0 0 0 0 0 0 0 0 0 0 0 0 0 0 0 0
0 0 0 0 0 0 0 0 0 0 0 0 0 0 0 0 0 1 1 2 2 1 0 1 1 1 1 1 1 1 0 0 0 0 0 0 0 0 0 0 0 0 0 0 0 0 0 0 0
0 0 0 0 0 0 0 0 0 0 0 0 0 0 0 0 0 0 0 1 1 1 0 0 0 1 1 2 2 2 1 1 1 1 1 1 1 1 0 0 0 0 0 0 0 0 0 0 0
0 0 0 0 0 0 0 0 0 0 0 0 0 0 0 0 0 0 0 0 0 0 0 0 0 0 0 1 2 2 2 2 2 2 2 2 2 2 1 0 0 0 0 0 0 0 0 0 0
0 0 0 0 0 0 0 0 0 0 0 0 0 0 0 0 0 0 0 0 0 0 0 0 0 0 0 0 1 1 2 3 3 3 3 3 3 3 2 1 0 0 0 0 0 0 0 0 0
0 0 0 0 0 0 0 0 0 0 0 0 0 0 0 0 0 0 0 0 0 0 0 0 0 0 0 0 0 0 1 2 3 3 3 3 2 2 2 1 0 0 0 0 0 0 0 0 0
0 0 0 0 0 0 0 0 0 0 0 0 0 0 0 0 0 0 0 0 0 0 0 0 0 0 0 0 0 0 0 1 1 2 2 1 1 1 1 0 0 0 0 0 0 0 0 0 0
0 0 0 0 0 0 0 0 0 0 0 0 0 0 0 0 0 0 0 0 0 0 0 0 0 0 0 0 0 0 0 0 0 1 1 0 0 0 0 0 0 0 0 0 0 0 0 0 0
0 0 0 0 0 0 0 0 0 0 0 0 0 0 0 0 0 0 0 0 0 0 0 0 0 0 0 0 0 0 0 0 0 0 0 0 0 0 0 0 0 0 0 0 0 0 0 0 0
Wind_Speed
15 11 6 3 3 3 3 1 3 5 5 8 8 7 8 9 8 7 2 5 6 5 4 4 8 9 9 9 9 9 9 9 9 9 9 9 10 10 10 10 10 10 9 9 9 9 10 10 10
11 8 4 3 3 4 2 2 5 6 6 6 6 6 7 8 8 6 4 5 5 5 4 4 8 9 9 9 8 9 9 9 9 9 9 9 9 10 10 10 9 10 9 9 8 8 8 8 8
9 6 3 2 2 3 0 4 6 7 7 5 4 6 6 7 6 4 4 4 5 5 5 6 8 9 9 9 9 8 8 8 8 9 9 9 10 10 10 10 9 9 9 8 8 8 7 7 6
4 3 2 2 1 1 1 3 3 6 5 6 5 7 7 7 5 4 4 4 6 6 6 6 9 9 9 9 9 9 9 8 8 9 8 9 9 9 9 9 9 9 9 9 8 8 7 6 5
3 3 3 3 2 1 1 3 3 4 3 5 5 6 7 6 7 5 4 5 6 6 6 5 9 9 9 9 9 9 9 9 9 9 9 9 9 8 8 9 9 8 8 8 8 7 7 6 5
3 3 4 5 5 3 1 2 3 4 3 4 4 5 7 5 6 4 4 4 6 6 6 5 8 9 9 9 9 9 9 8 9 9 8 8 8 8 7 8 8 8 8 7 7 6 6 6 5
2 2 5 5 5 3 1 2 3 2 3 4 4 4 6 5 5 3 3 4 6 6 5 4 4 5 7 8 8 8 8 9 9 9 8 8 7 7 7 7 7 7 7 7 7 6 5 5 5
3 1 4 5 6 3 1 1 3 4 3 4 5 4 4 3 3 3 3 5 6 6 5 4 4 4 4 4 7 8 9 9 9 9 9 8 7 6 7 6 6 6 6 6 6 5 5 5 4
3 2 3 4 4 3 2 2 2 2 4 4 5 6 5 5 4 4 4 5 5 5 4 4 4 3 3 3 5 6 7 8 8 6 8 6 3 3 3 5 6 6 5 5 5 5 5 4 3
1 2 3 2 1 3 4 3 2 4 4 3 5 7 6 5 4 4 4 4 4 4 4 3 3 3 3 3 3 2 3 3 3 3 3 2 2 3 4 5 6 6 6 5 4 4 4 3 2
2 1 1 3 3 3 3 3 2 3 3 3 4 5 5 5 4 4 3 3 3 3 3 3 3 3 3 2 2 2 2 2 2 3 3 3 3 3 3 2 3 3 3 3 3 3 2 3 2
1 3 2 1 4 3 3 2 3 4 3 4 3 5 5 5 4 3 3 3 3 3 3 3 3 3 2 2 2 2 2 2 2 2 3 3 2 2 2 2 2 2 2 3 3 3 3 3 3
2 2 4 4 5 5 5 4 3 3 3 3 4 5 4 4 3 3 2 3 3 3 3 2 2 2 2 2 2 2 2 2 2 2 2 3 2 2 2 2 2 2 2 2 3 3 4 4 3
4 5 4 2 2 2 3 2 2 2 1 2 3 3 3 3 3 3 3 3 2 3 2 2 2 2 2 2 2 2 2 2 2 2 2 3 2 2 2 2 2 3 3 3 2 3 3 3 3
5 4 2 0 1 2 2 0 1 2 2 1 2 2 3 2 2 3 2 2 2 2 2 2 2 2 2 2 2 2 2 2 2 2 2 3 2 2 2 2 2 2 2 3 3 3 3 3 3
3 2 1 0 1 2 2 3 2 3 3 2 1 2 2 2 2 2 2 2 2 2 2 2 3 2 2 2 1 1 2 2 2 2 2 3 3 3 1 1 2 2 2 2 2 3 3 3 4
3 2 2 1 1 2 3 2 3 4 3 3 2 2 2 2 2 2 2 3 2 2 2 2 2 2 1 1 1 2 2 2 2 2 2 2 3 3 2 2 2 2 2 2 3 3 3 3 4
1 2 1 1 1 1 2 3 4 4 4 3 2 1 2 2 1 1 2 2 3 2 2 2 2 2 2 1 1 1 1 2 2 2 2 3 3 3 2 2 3 3 2 2 2 3 3 3 4
1 1 1 1 1 1 2 4 4 4 3 4 3 2 2 2 2 2 2 2 2 2 2 2 2 1 1 1 1 0 0 1 1 1 2 3 3 3 2 2 2 2 2 2 3 3 3 3 3
2 2 1 1 2 0 2 5 4 5 5 4 3 3 2 2 2 2 2 2 2 2 1 1 1 1 1 1 0 1 1 0 0 1 1 1 2 2 2 3 2 2 2 3 3 3 3 2 2
2 1 1 1 2 3 2 4 4 3 4 3 3 2 2 2 2 2 2 2 2 2 1 1 1 1 0 1 1 1 1 1 1 2 1 2 2 2 2 2 2 2 2 2 2 2 3 3 2
2 2 1 2 2 1 1 2 2 4 4 5 4 3 2 2 1 2 2 2 1 1 1 1 1 0 1 1 0 1 0 0 1 1 1 2 2 2 2 3 3 3 2 2 3 2 3 2 3
1 2 2 2 2 2 2 2 4 3 4 5 5 4 3 2 2 2 2 2 1 1 1 1 1 1 0 1 0 0 1 1 1 1 1 1 1 2 2 2 2 3 2 3 3 3 3 2 3
2 2 2 2 1 3 3 2 3 3 3 2 3 4 4 2 2 2 2 2 1 1 1 1 1 1 1 1 0 0 1 2 2 2 2 2 2 2 3 3 3 3 3 3 3 3 3 3 3
2 1 0 1 1 2 2 2 5 1 2 2 2 3 3 2 2 2 2 2 2 1 1 1 1 1 1 1 1 1 1 1 2 2 2 2 2 2 3 3 3 3 3 3 3 3 3 3 4
1 2 1 1 2 1 1 3 3 2 2 2 2 3 2 2 2 2 2 2 2 1 1 1 1 1 1 1 1 1 1 1 1 2 1 2 2 2 2 3 3 4 4 4 4 3 4 4 4
1 0 1 1 0 2 3 3 1 2 2 1 1 2 1 1 2 1 1 1 2 1 1 1 1 1 1 1 1 1 1 1 2 2 2 1 2 2 2 3 3 3 4 4 4 3 4 4 4
2 1 0 1 1 3 3 3 3 3 3 3 2 2 1 1 1 1 1 1 2 1 1 1 1 1 1 1 0 1 1 1 2 2 2 2 3 3 3 3 3 3 4 4 4 4 4 4 4
1 1 1 1 1 2 3 4 1 3 4 3 2 2 1 1 1 2 1 1 1 1 1 1 1 1 1 0 0 1 1 1 1 1 2 2 2 3 3 3 4 4 4 4 4 4 4 4 5
1 2 2 2 2 2 2 6 1 2 3 2 2 1 2 2 2 2 2 2 2 1 1 1 0 0 0 0 0 1 1 1 1 1 2 2 2 3 3 3 4 4 4 4 4 5 5 5 5
Wind_Direction
311 292 273 264 240 229 230 236 57 56 58 53 45 47 57 45 39 81 60 46 56 75 76 54 49 57 66 69 72 74 73 71 72 73 75 74 72 70 68 66 66 68 69 72 74 75 76 78 78
303 296 274 250 246 230 215 112 74 61 77 81 58 55 67 67 61 78 40 36 65 78 79 69 55 57 65 67 67 71 70 69 69 70 72 73 72 69 67 65 64 63 63 65 68 72 75 78 80
287 273 271 252 255 261 150 72 94 79 61 69 74 46 47 48 54 53 40 51 73 76 72 66 56 58 61 63 62 64 65 66 68 69 69 71 72 68 65 64 63 60 59 61 63 65 67 70 75
279 241 239 247 199 336 339 9 79 105 79 55 81 82 75 40 30 45 53 71 80 77 73 70 54 56 58 58 59 60 62 64 66 66 67 68 70 70 66 63 61 59 56 56 58 57 59 59 63
243 241 216 210 212 243 12 10 33 67 73 60 68 89 84 54 45 59 61 72 78 75 75 78 55 55 54 55 59 61 61 61 61 63 63 64 65 68 69 64 60 56 53 51 50 50 50 47 41
248 237 219 203 187 206 280 348 53 66 69 50 68 96 87 63 51 44 59 73 82 81 82 83 54 53 50 48 50 57 57 58 60 59 60 60 63 64 64 64 60 54 49 46 45 43 40 37 30
262 252 238 204 187 198 251 5 28 51 56 23 2 89 104 65 51 50 55 72 79 81 83 82 70 61 51 45 45 50 52 53 54 52 50 50 50 51 52 52 53 52 46 43 40 36 31 28 25
295 266 229 221 206 193 188 76 44 23 51 24 15 62 91 74 64 73 68 69 72 72 75 73 70 63 58 56 49 50 51 51 50 47 43 43 43 42 43 40 39 44 39 36 31 26 21 12 9
292 242 224 227 205 178 154 125 84 61 76 61 50 54 78 104 95 87 78 66 63 61 64 70 65 59 54 64 58 52 52 48 50 49 45 43 36 43 41 31 30 29 27 23 17 15 11 358 336
358 224 238 327 92 131 102 103 142 121 91 98 88 77 91 107 105 98 89 82 72 57 49 55 63 60 57 62 68 53 56 54 46 45 40 18 15 27 39 39 34 22 14 4 353 346 342 324 305
55 157 109 31 52 102 96 85 44 113 69 56 97 109 108 102 94 91 82 83 85 84 59 48 47 60 56 50 65 51 51 46 38 38 26 17 23 29 36 40 31 16 7 350 335 313 310 310 317
112 53 63 34 41 67 75 86 65 46 73 63 68 116 120 115 106 94 86 73 70 72 66 55 46 47 53 54 56 57 50 49 43 33 33 28 22 21 18 26 16 8 352 342 338 329 320 325 332
131 103 74 68 64 63 73 70 83 74 77 78 78 96 109 120 119 111 97 84 79 70 64 63 52 48 43 50 44 54 52 53 49 39 31 32 29 16 13 10 11 359 357 349 336 332 335 333 325
107 112 95 74 99 93 93 71 83 141 130 103 91 101 112 113 120 107 90 81 73 74 65 54 63 53 48 43 37 49 52 49 52 45 29 26 25 21 16 10 4 355 354 349 334 331 333 328 326
132 118 100 117 162 162 132 128 219 191 173 142 116 111 112 104 111 113 108 100 87 87 82 55 56 50 51 48 35 35 43 49 44 37 23 17 13 15 16 8 2 348 343 343 337 335 336 335 336
194 179 162 55 246 195 202 226 189 180 177 184 166 130 122 114 99 103 114 110 92 82 84 71 47 48 47 45 37 39 38 44 42 34 25 13 7 3 5 4 351 337 340 349 343 346 343 338 335
192 186 175 159 336 257 214 223 187 180 190 206 206 168 147 121 97 84 107 121 113 99 85 75 57 48 47 54 45 48 46 43 42 33 25 12 14 6 2 355 342 342 349 351 348 349 339 333 329
151 161 162 152 17 349 236 227 208 191 195 212 216 194 164 138 119 96 95 124 132 128 108 85 63 41 30 50 65 53 40 41 41 35 20 10 15 15 4 356 349 351 349 345 347 339 336 329 323
29 105 116 75 50 351 257 253 233 202 206 209 216 214 191 174 153 136 115 119 128 125 114 100 82 54 39 34 36 50 3 9 17 23 26 12 9 3 3 357 348 355 351 346 342 336 332 331 332
48 64 28 53 83 332 278 266 240 208 206 204 210 217 208 195 159 132 120 116 112 123 122 124 114 90 50 26 245 216 252 233 45 352 354 352 356 357 358 351 343 346 342 350 355 351 339 327 342
35 32 322 298 305 225 246 276 199 179 191 198 211 221 219 205 171 144 117 116 106 100 103 101 134 137 113 23 18 8 13 7 9 347 341 344 347 348 342 346 342 339 339 330 326 335 337 317 308
358 26 300 275 290 265 231 286 230 180 190 207 208 214 224 225 172 142 125 111 98 112 121 122 121 158 177 141 47 29 29 327 301 313 330 345 0 1 357 356 343 329 321 319 315 319 300 297 296
358 322 283 276 275 291 235 236 260 165 204 217 207 204 212 199 172 154 148 151 133 115 118 114 88 58 55 118 139 285 293 289 309 326 322 315 317 336 348 348 346 338 329 327 322 316 311 301 297
302 272 242 253 250 264 223 206 258 198 203 189 188 191 196 184 152 137 142 132 121 110 105 109 115 84 56 52 32 318 309 325 339 344 341 334 330 335 350 348 346 334 330 327 323 317 314 305 305
320 318 20 290 238 247 140 205 249 191 127 139 158 180 179 162 150 159 158 138 125 110 112 117 115 85 58 55 32 360 330 322 321 324 330 330 331 334 341 344 334 328 322 320 319 312 309 304 306
311 334 56 264 277 304 162 236 245 134 107 89 97 110 115 143 154 158 163 156 143 143 148 131 130 109 73 58 22 15 4 345 332 333 327 317 312 319 338 339 335 333 332 329 323 314 312 312 305
331 54 339 356 352 290 254 248 257 132 129 133 125 117 141 173 174 174 158 149 138 137 147 136 141 107 79 63 37 16 19 356 334 330 329 326 328 329 339 336 329 327 325 321 319 311 313 317 313
349 346 88 160 282 284 266 244 236 191 203 194 187 192 191 178 173 168 156 153 147 150 150 132 121 113 91 56 354 348 23 4 352 350 349 347 343 340 343 339 329 326 326 323 318 310 309 310 305
152 182 239 226 226 239 278 270 251 167 170 171 188 185 167 175 195 188 177 170 157 141 147 152 127 92 75 116 282 314 314 347 7 349 339 339 343 344 346 343 337 335 334 330 323 314 312 309 309
244 214 182 187 244 237 263 274 297 136 144 152 178 193 183 198 210 206 195 175 164 168 168 186 183 144 268 269 239 262 298 324 330 316 322 337 338 339 340 338 334 330 330 329 322 315 316 309 305